[[{"header":{"parameterUnit":"m.s-1","parameterCategory":1,"la1":30.2991,"la2":30.254,"lo1":-89.0895,"lo2":-89.0444,"dy":0.0017,"dx":0.0017,"nx":28,"ny":28,"refTime":"2023-04-05T15:00:00:Z","depth":0,"parameterNumber":2,"parameterNumberName":"U-component_of_WINDS"},"data":[0,0,0,0,0,0,0,0,0,0,0,0,0,0,0,0,0,0,0,0,0,0,0,0,0,0,0,0,0,0,0,0,0,0,0,0,0,0,0,0,0,0,0,0,0,0,0,0,0,0,0,0,0,0,0,0,0,0,-2.8241,-2.8242,0,-2.8275,-2.8276,-2.8276,-2.8275,-2.8274,-2.8274,-2.8273,-2.8309,-2.831,-2.8312,0,0,0,0,0,0,0,0,0,0,0,0,0,-2.8177,-2.8178,-2.8241,-2.8242,-2.8242,-2.8275,-2.8276,-2.8276,-2.8275,-2.8274,-2.8274,-2.8273,-2.8309,-2.831,-2.8312,0,0,0,0,0,0,0,0,0,0,0,0,0,-2.8207,-2.8178,-2.8241,-2.8245,-2.8246,-2.8275,-2.8276,-2.8276,-2.8275,-2.8274,-2.8274,-2.8273,-2.8308,-2.831,-2.8312,-2.8339,0,0,-2.8318,-2.8319,0,0,0,0,0,0,0,0,-2.8205,-2.8209,-2.8244,-2.8245,-2.8246,-2.827,-2.8266,-2.8297,-2.8275,-2.8264,-2.8273,-2.8273,-2.8297,-2.83,-2.8308,-2.8341,-2.8342,-2.8319,-2.832,-2.8321,-2.8321,0,0,0,0,0,0,0,-2.8203,-2.8208,-2.8255,-2.8245,-2.8246,-2.8246,-2.825,-2.8272,-2.8284,-2.8265,-2.8265,-2.8269,-2.8297,-2.8306,-2.8308,-2.8343,-2.8319,-2.832,-2.8322,-2.8323,-2.8401,-2.8402,0,0,0,0,0,0,-2.82,-2.8206,-2.8254,-2.8256,-2.8223,-2.8248,-2.8252,-2.8263,-2.8284,-2.8286,-2.827,-2.8269,-2.8302,-2.8306,-2.831,-2.8342,-2.8321,-2.8323,-2.8324,-2.84,-2.8401,-2.8402,0,0,0,0,0,0,-2.8199,-2.8204,-2.8252,-2.8231,-2.8237,-2.825,-2.8262,-2.8264,-2.8273,-2.8287,-2.8289,-2.8276,-2.8302,-2.8307,-2.8332,-2.8344,-2.8324,-2.8326,-2.8399,-2.84,-2.8402,-2.8409,0,0,0,0,0,0,-2.8197,-2.8204,-2.8214,-2.8231,-2.8238,-2.8273,-2.8263,-2.8265,-2.8276,-2.8275,-2.8294,-2.8296,-2.8302,-2.8329,-2.8334,-2.8346,-2.8327,-2.8398,-2.84,-2.8401,-2.8407,-2.841,-2.8412,0,0,0,0,0,-2.8194,-2.8214,-2.8214,-2.822,-2.8251,-2.8274,-2.8278,-2.8284,-2.8277,-2.8287,-2.8297,-2.8296,-2.8342,-2.8331,-2.8337,-2.835,-2.8397,-2.8399,-2.8401,-2.8406,-2.8409,-2.8412,0,0,0,0,0,0,-2.8198,-2.8217,-2.8217,-2.8243,-2.8257,-2.8274,-2.8287,-2.8287,-2.8303,-2.8302,-2.8309,-2.8313,-2.8338,-2.8347,-2.8335,-2.8378,-2.8369,-2.8372,-2.8371,-2.8374,-2.8376,-2.8373,-2.8329,0,0,0,0,0,-2.8202,-2.8219,-2.8235,-2.8256,-2.8263,-2.8274,-2.8284,-2.8288,-2.8303,-2.8308,-2.832,-2.8335,-2.8353,-2.8364,-2.8381,-2.8409,-2.8413,-2.8421,-2.8424,-2.8426,-2.8428,-2.8443,-2.8447,-2.8408,-2.8408,-2.8408,0,0,-2.821,-2.8222,-2.8232,-2.8257,-2.8268,-2.8286,-2.8279,-2.8298,-2.8311,-2.8311,-2.8335,-2.8345,-2.8362,-2.8388,-2.8401,-2.8396,-2.844,-2.8428,-2.8429,-2.8431,-2.8445,-2.8449,-2.8452,-2.8409,-2.8409,-2.8409,0,0,-2.8233,-2.8245,-2.8264,-2.8275,-2.8292,-2.83,-2.8304,-2.8322,-2.8327,-2.8352,-2.8353,-2.8369,-2.84,-2.8412,-2.8422,-2.8452,-2.8451,-2.8457,-2.8469,-2.8484,-2.8487,-2.849,-2.85,-2.8503,-2.846,-2.846,-2.846,0,-2.8241,-2.8267,-2.8273,-2.8292,-2.8303,-2.8305,-2.8325,-2.8336,-2.8358,-2.8365,-2.8361,-2.84,-2.8411,-2.8441,-2.8448,-2.8457,-2.8462,-2.8454,-2.8486,-2.8489,-2.8492,-2.8501,-2.8505,-2.846,-2.846,-2.846,-2.846,0,-2.8275,-2.8294,-2.8307,-2.8328,-2.8341,-2.836,-2.837,-2.8382,-2.8385,-2.8393,-2.8418,-2.8433,-2.8453,-2.8461,-2.8464,-2.8491,-2.8487,-2.8485,-2.8475,-2.8496,-2.8505,-2.8508,-2.8461,-2.8461,-2.8461,-2.8461,0,0,-2.83,-2.8325,-2.833,-2.8339,-2.8359,-2.8373,-2.8393,-2.8413,-2.8423,-2.8439,-2.8456,-2.8483,-2.848,-2.8492,-2.8496,-2.851,-2.8531,-2.8505,-2.8506,-2.8508,-2.8562,-2.8563,-2.8567,-2.8532,-2.8533,-2.8533,-2.856,0,-2.8324,-2.8358,-2.8365,-2.8395,-2.8412,-2.8415,-2.8432,-2.8447,-2.8455,-2.8471,-2.8481,-2.8499,-2.8495,-2.8502,-2.8516,-2.8526,-2.8542,-2.8524,-2.8547,-2.8548,-2.8541,-2.8572,-2.8573,-2.8597,-2.8564,-2.8564,-2.8565,0,-2.8357,-2.8373,-2.8404,-2.8422,-2.8429,-2.8445,-2.8463,-2.8479,-2.8496,-2.8501,-2.8515,-2.8518,-2.8539,-2.8531,-2.856,-2.8548,-2.8558,-2.8565,-2.8566,-2.8567,-2.8556,-2.8572,-2.8605,-2.8608,-2.857,-2.857,-2.8569,0,-2.837,-2.84,-2.8423,-2.8431,-2.8453,-2.8463,-2.8473,-2.8489,-2.8501,-2.8518,-2.8525,-2.8545,-2.8555,-2.857,-2.8579,-2.8572,-2.8608,-2.86,-2.8613,-2.8613,-2.8619,-2.8618,-2.8652,-2.8628,-2.8628,-2.8628,-2.8628,0,-2.8396,-2.8414,-2.8429,-2.8442,-2.8464,-2.8473,-2.8494,-2.8504,-2.8518,-2.8534,-2.8539,-2.8554,-2.8566,-2.8582,-2.859,-2.8613,-2.8618,-2.8623,-2.8624,-2.8622,-2.8621,-2.8627,-2.8625,-2.8629,-2.8628,-2.8628,-2.8628,0,-2.8413,-2.8424,-2.8449,-2.8467,-2.8473,-2.8487,-2.8504,-2.8518,-2.8527,-2.8547,-2.8552,-2.8567,-2.8587,-2.8598,-2.8624,-2.8629,-2.8654,-2.8656,-2.8648,-2.8649,-2.866,-2.8659,-2.8698,-2.8704,-2.8677,-2.8677,-2.8678,0,-2.8428,-2.8443,-2.8463,-2.8474,-2.8484,-2.8501,-2.8513,-2.8523,-2.8535,-2.8556,-2.8567,-2.8588,-2.8604,-2.8637,-2.865,-2.867,-2.8671,-2.8684,-2.8674,-2.8671,-2.867,-2.8668,-2.867,-2.8685,-2.8685,-2.8685,-2.8685,0,-2.8453,-2.8458,-2.8474,-2.8493,-2.8507,-2.8522,-2.8538,-2.8547,-2.8559,-2.8573,-2.8593,-2.8607,-2.8633,-2.8653,-2.8674,-2.8685,-2.8687,-2.8689,-2.8692,-2.8689,-2.8684,-2.8686,-2.8651,-2.8687,-2.8687,-2.8687,-2.8687,-2.8687,-2.8469,-2.8482,-2.8498,-2.8517,-2.853,-2.8544,-2.8558,-2.8569,-2.8586,-2.8607,-2.8613,-2.8635,-2.8652,-2.868,-2.8692,-2.8709,-2.8707,-2.8712,-2.8714,-2.8715,-2.8714,-2.8682,-2.8713,-2.8713,-2.8713,-2.8713,-2.8713,0,-2.8493,-2.8504,-2.8521,-2.8542,-2.8557,-2.8559,-2.8576,-2.8588,-2.8607,-2.8623,-2.8639,-2.8663,-2.8683,-2.8698,-2.8719,-2.873,-2.8732,-2.8735,-2.8734,-2.8736,-2.8716,-2.871,-2.8733,-2.8733,-2.8733,-2.8733,-2.8733,-2.8733,-2.8507,-2.8529,-2.8536,-2.8565,-2.8576,-2.8596,-2.8606,-2.862,-2.8632,-2.8658,-2.8675,-2.8685,-2.8701,-2.8723,-2.8741,-2.8745,-2.8752,-2.8755,-2.8759,-2.874,-2.8737,-2.8735,-2.873,-2.8757,-2.8757,-2.8778,-2.8778,-2.8778]},{"header":{"parameterUnit":"m.s-1","parameterCategory":1,"la1":30.2991,"la2":30.254,"lo1":-89.0895,"lo2":-89.0444,"dy":0.0017,"dx":0.0017,"nx":28,"ny":28,"refTime":"2023-04-05T15:00:00:Z","depth":0,"parameterNumber":3,"parameterNumberName":"V-component_of_WINDS"},"data":[0,0,0,0,0,0,0,0,0,0,0,0,0,0,0,0,0,0,0,0,0,0,0,0,0,0,0,0,0,0,0,0,0,0,0,0,0,0,0,0,0,0,0,0,0,0,0,0,0,0,0,0,0,0,0,0,0,0,2.8463,2.8464,0,2.8542,2.8543,2.8544,2.8579,2.8579,2.8579,2.8579,2.8661,2.8664,2.8666,0,0,0,0,0,0,0,0,0,0,0,0,0,2.8346,2.8348,2.8463,2.8464,2.8465,2.8542,2.8543,2.8544,2.8579,2.8579,2.8579,2.8579,2.8661,2.8663,2.8666,0,0,0,0,0,0,0,0,0,0,0,0,0,2.8408,2.8349,2.8463,2.8492,2.8495,2.8542,2.8543,2.8544,2.8579,2.8579,2.8579,2.8579,2.866,2.8663,2.8666,2.8691,0,0,2.8677,2.8678,0,0,0,0,0,0,0,0,2.8405,2.8413,2.8487,2.849,2.8494,2.8551,2.8532,2.8593,2.8579,2.8547,2.8579,2.8579,2.8625,2.8631,2.8646,2.8694,2.8698,2.8677,2.8679,2.8681,2.8682,0,0,0,0,0,0,0,2.8401,2.8409,2.8494,2.8488,2.8492,2.8502,2.8511,2.8544,2.8586,2.855,2.8553,2.8562,2.8627,2.8643,2.8648,2.8699,2.8677,2.868,2.8682,2.8684,2.8775,2.8775,0,0,0,0,0,0,2.8391,2.8406,2.8492,2.8497,2.8448,2.8504,2.8514,2.8533,2.8586,2.8594,2.8562,2.8563,2.8637,2.8644,2.8651,2.8686,2.8681,2.8684,2.8686,2.8775,2.8775,2.8776,0,0,0,0,0,0,2.8388,2.8398,2.8489,2.8452,2.8464,2.8507,2.8527,2.8534,2.855,2.8595,2.8602,2.857,2.8637,2.8647,2.8681,2.8689,2.8686,2.8689,2.8774,2.8775,2.8775,2.8753,0,0,0,0,0,0,2.8385,2.8397,2.8406,2.8452,2.8466,2.8516,2.8527,2.8536,2.8556,2.8558,2.8605,2.8612,2.8638,2.8676,2.8685,2.8694,2.8691,2.8774,2.8775,2.8775,2.8753,2.8752,2.8752,0,0,0,0,0,2.8381,2.8396,2.8406,2.8416,2.8477,2.8516,2.8524,2.8553,2.8556,2.8566,2.8595,2.8611,2.8687,2.8679,2.8689,2.8699,2.8773,2.8774,2.8775,2.8753,2.8753,2.8752,0,0,0,0,0,0,2.8349,2.8402,2.8414,2.8444,2.8475,2.8522,2.8535,2.8551,2.8582,2.8583,2.8619,2.8629,2.8661,2.8684,2.8675,2.8728,2.8732,2.8735,2.8711,2.8711,2.8711,2.8705,2.8694,0,0,0,0,0,2.8345,2.8371,2.8417,2.8439,2.8454,2.8492,2.851,2.853,2.8564,2.8577,2.8609,2.8642,2.8674,2.8693,2.8725,2.8756,2.8769,2.8769,2.8768,2.8767,2.877,2.8792,2.8793,2.8778,2.8778,2.8778,0,0,2.8338,2.8371,2.8385,2.8434,2.846,2.8488,2.8503,2.8531,2.8553,2.8582,2.8617,2.8641,2.8681,2.8715,2.8731,2.8735,2.8777,2.8769,2.8768,2.8771,2.8793,2.8794,2.8795,2.8779,2.8779,2.8779,0,0,2.834,2.8366,2.8389,2.8416,2.8456,2.8482,2.8487,2.8532,2.855,2.8586,2.8609,2.8636,2.8689,2.8717,2.8738,2.8755,2.8771,2.8764,2.8761,2.8782,2.8783,2.8785,2.8793,2.8795,2.8766,2.8766,2.8766,0,2.8326,2.8368,2.8399,2.8427,2.8449,2.8477,2.8502,2.8527,2.8575,2.8591,2.8593,2.8663,2.8691,2.8734,2.8738,2.8754,2.8763,2.8759,2.8781,2.8782,2.8784,2.8792,2.8795,2.8765,2.8765,2.8765,2.8765,0,2.8351,2.838,2.8394,2.8441,2.8465,2.8491,2.8527,2.8547,2.8566,2.8592,2.863,2.8665,2.8706,2.8717,2.8735,2.8764,2.8765,2.8774,2.8779,2.8784,2.8793,2.8796,2.8763,2.8764,2.8764,2.8764,0,0,2.8333,2.8399,2.8404,2.8427,2.8475,2.8499,2.8528,2.8567,2.8586,2.8619,2.8646,2.8691,2.8701,2.8725,2.8747,2.8765,2.8779,2.8772,2.8774,2.8774,2.8816,2.881,2.8813,2.879,2.8791,2.8791,2.8814,0,2.8343,2.8395,2.8425,2.8465,2.8494,2.8523,2.8549,2.8582,2.8608,2.8637,2.8666,2.8699,2.8707,2.8723,2.8742,2.8773,2.8788,2.8772,2.8817,2.8818,2.8808,2.8817,2.8811,2.883,2.8817,2.8817,2.8818,0,2.836,2.8394,2.8438,2.8486,2.8499,2.8521,2.8563,2.859,2.8629,2.8647,2.8675,2.8698,2.8732,2.8734,2.8782,2.8771,2.8791,2.881,2.8811,2.8818,2.8819,2.8826,2.8836,2.884,2.8823,2.8823,2.8822,0,2.8346,2.8402,2.8437,2.8455,2.8511,2.8527,2.8551,2.8591,2.8614,2.865,2.8666,2.8706,2.8728,2.8758,2.8792,2.879,2.8838,2.8842,2.8856,2.8855,2.8865,2.8864,2.8881,2.8875,2.8875,2.8875,2.8875,0,2.8354,2.838,2.8431,2.8452,2.8484,2.8519,2.8549,2.8576,2.8611,2.864,2.8667,2.8693,2.8735,2.8767,2.8793,2.8832,2.8841,2.8857,2.8864,2.8856,2.8854,2.8871,2.8871,2.8876,2.8876,2.8876,2.8876,0,2.8343,2.8378,2.8418,2.8469,2.8482,2.8503,2.8548,2.8571,2.8598,2.8634,2.8645,2.8689,2.8729,2.8765,2.8817,2.8835,2.8875,2.8882,2.8861,2.8865,2.8877,2.8877,2.8906,2.8913,2.8901,2.8902,2.8902,0,2.8347,2.8368,2.8422,2.8443,2.8467,2.85,2.8525,2.8561,2.8586,2.8635,2.8652,2.8694,2.8729,2.8792,2.8829,2.887,2.8881,2.8888,2.8887,2.8879,2.8884,2.8883,2.8886,2.8888,2.8888,2.8888,2.8888,0,2.835,2.8367,2.8401,2.8442,2.8471,2.8505,2.854,2.8556,2.8599,2.8626,2.8667,2.8695,2.875,2.8792,2.8838,2.8865,2.8885,2.8888,2.8894,2.8886,2.8874,2.8883,2.8862,2.8887,2.8888,2.8888,2.8888,2.8888,2.8348,2.8369,2.8411,2.8449,2.848,2.8513,2.8538,2.857,2.8605,2.8652,2.8672,2.8715,2.8758,2.8822,2.8849,2.8884,2.8888,2.8895,2.8897,2.8899,2.8899,2.8867,2.8892,2.8892,2.8892,2.8892,2.8892,0,2.8355,2.8384,2.8418,2.8468,2.8498,2.8514,2.8555,2.858,2.8617,2.8655,2.869,2.8739,2.8781,2.8823,2.8868,2.8888,2.8899,2.8899,2.8898,2.8905,2.8891,2.8883,2.889,2.889,2.889,2.889,2.889,2.889,2.8362,2.84,2.8422,2.8477,2.8507,2.8549,2.8571,2.8603,2.8634,2.8687,2.8723,2.875,2.879,2.8839,2.8879,2.8891,2.8907,2.8905,2.8919,2.8906,2.8905,2.8905,2.8898,2.8908,2.8908,2.893,2.893,2.8931]}]]